FW7611 Weather Reports


Display with metric or nautical units.
time (UTC)temp
F
wind
direction
speed
MPH
gust
MPH
rain 1hr
in
rain 24hr
in
rain mn
in
humidity
%
barometer
mb
20260831124539 72 320 0.0 2.0 0.00 0.00 0.00 92 1023.0
20260831123047 71 319 0.0 2.0 0.00 0.00 0.00 94 1023.0
20260831121542 70 0 0.0 2.0 0.00 0.00 0.00 95 1023.0
20260831120044 69 0 0.0 2.0 0.00 0.00 0.00 95 1022.9
20260831114549 68 0 0.0 0.0 0.00 0.00 0.00 95 1022.9
20260831113048 68 0 0.0 0.0 0.00 0.00 0.00 95 1023.0
20260831111541 68 0 0.0 0.0 0.00 0.00 0.00 95 1022.8
20260831110056 68 0 0.0 0.0 0.00 0.00 0.00 95 1022.7
20260831104540 68 0 0.0 0.0 0.00 0.00 0.00 95 1022.7
20260831103048 68 0 0.0 0.0 0.00 0.00 0.00 95 1022.6
20260831101551 68 0 0.0 0.0 0.00 0.00 0.00 95 1022.5
20260831100056 68 0 0.0 0.0 0.00 0.00 0.00 95 1022.2
20260831094546 68 0 0.0 0.0 0.00 0.00 0.00 95 1022.3
20260831093049 68 0 0.0 0.0 0.00 0.00 0.00 95 1022.2
20260831091541 68 0 0.0 0.0 0.00 0.00 0.00 95 1022.3
20260831090101 68 0 0.0 0.0 0.00 0.00 0.00 94 1022.3
20260831084547 68 0 0.0 0.0 0.00 0.00 0.00 95 1022.2
20260831083041 68 0 0.0 0.0 0.00 0.00 0.00 95 1022.0
20260831081542 68 0 0.0 0.0 0.00 0.00 0.00 94 1022.0
20260831080044 68 0 0.0 0.0 0.00 0.00 0.00 94 1022.3
20260831074541 68 0 0.0 0.0 0.00 0.00 0.00 94 1022.2
20260831073101 68 0 0.0 0.0 0.00 0.00 0.00 94 1022.1
20260831071541 68 0 0.0 0.0 0.00 0.00 0.00 94 1022.2
20260831070042 68 0 0.0 0.0 0.00 0.00 0.00 94 1022.2
20260831064547 69 0 0.0 0.0 0.00 0.00 0.00 94 1022.4
20260831063040 69 0 0.0 0.0 0.00 0.00 0.00 94 1022.4
20260831061553 69 0 0.0 0.0 0.00 0.00 0.00 94 1022.5
20260831060041 69 0 0.0 0.0 0.00 0.00 0.00 94 1022.5
20260831054550 69 0 0.0 0.0 0.00 0.00 0.00 93 1022.6
20260831053053 69 0 0.0 0.0 0.00 0.00 0.00 93 1022.7
20260831051549 69 0 0.0 0.0 0.00 0.00 0.00 93 1022.7
20260831050044 70 0 0.0 0.0 0.00 0.00 0.00 93 1022.7
20260831044542 70 0 0.0 0.0 0.00 0.00 0.00 92 1022.8
20260831043041 70 0 0.0 0.0 0.00 0.00 0.00 92 1022.9
20260831041542 70 0 0.0 0.0 0.00 0.00 0.00 92 1022.8
20260831040041 71 0 0.0 0.0 0.00 0.00 0.00 92 1022.9
20260831034548 71 0 0.0 0.0 0.00 0.00 0.00 91 1022.9
20260831033049 71 0 0.0 0.0 0.00 0.00 0.00 91 1023.0
20260831031545 71 0 0.0 0.0 0.00 0.00 0.00 91 1023.1
20260831030047 71 0 0.0 0.0 0.00 0.00 0.00 90 1023.0
20260831024608 72 0 0.0 0.0 0.00 0.00 0.00 88 1023.1
20260831023045 72 0 0.0 0.0 0.00 0.00 0.00 88 1023.1
20260831021540 73 0 0.0 0.0 0.00 0.00 0.00 87 1023.3
20260831020050 73 0 0.0 0.0 0.00 0.00 0.00 87 1023.1
20260831014547 73 0 0.0 0.0 0.00 0.00 0.00 86 1023.1
20260831013054 74 0 0.0 0.0 0.00 0.00 0.00 86 1022.9
20260831011554 74 0 0.0 0.0 0.00 0.00 0.00 86 1022.9
20260831010052 74 0 0.0 0.0 0.00 0.00 0.00 85 1022.7
20260831004547 75 0 0.0 0.0 0.00 0.00 0.00 84 1022.4
20260831003044 76 0 0.0 2.0 0.00 0.00 0.00 82 1022.3
20260831001552 76 0 0.0 0.0 0.00 0.00 0.00 82 1022.3
20260831000055 77 0 0.0 0.0 0.00 0.00 0.00 81 1022.2
20260830234547 78 0 0.0 2.0 0.00 0.00 0.00 78 1022.4
20260830233051 79 0 0.0 1.0 0.00 0.00 0.00 75 1022.4
20260830231552 81 0 0.0 0.0 0.00 0.00 0.00 71 1022.4
20260830230049 82 0 0.0 2.0 0.00 0.00 0.00 69 1022.3
20260830224543 82 0 0.0 2.0 0.00 0.00 0.00 67 1022.4
20260830223053 83 207 0.0 2.0 0.00 0.00 0.00 66 1022.2
20260830221550 83 0 0.0 2.0 0.00 0.00 0.00 64 1022.0
20260830220048 84 0 0.0 0.0 0.00 0.00 0.00 65 1022.1
20260830214552 84 191 0.0 4.0 0.00 0.00 0.00 64 1022.2
20260830213046 84 0 0.0 5.0 0.00 0.00 0.00 62 1022.2
20260830211552 84 0 1.0 4.0 0.00 0.00 0.00 63 1022.2
20260830210053 84 0 1.0 6.0 0.00 0.00 0.00 64 1022.3
20260830204550 84 0 0.0 2.0 0.00 0.00 0.00 65 1022.4
20260830203057 84 169 1.0 3.0 0.00 0.00 0.00 63 1022.5
20260830201558 84 190 1.0 4.0 0.00 0.00 0.00 64 1022.5
20260830200049 84 128 0.0 5.0 0.00 0.00 0.00 63 1022.7
20260830194548 83 173 1.0 3.0 0.00 0.00 0.00 64 1022.7
20260830193042 85 304 0.0 3.0 0.00 0.00 0.00 63 1022.9
20260830191541 84 211 0.0 3.0 0.00 0.00 0.00 64 1023.0
20260830190050 83 0 0.0 2.0 0.00 0.00 0.00 65 1023.2
20260830184542 84 345 0.0 2.0 0.00 0.00 0.00 63 1023.5
20260830183105 84 327 1.0 2.0 0.00 0.00 0.00 63 1023.9
20260830181556 85 167 2.0 5.0 0.00 0.00 0.00 62 1024.1
20260830180049 84 202 3.0 5.0 0.00 0.00 0.00 64 1024.3
20260830174551 82 295 0.0 3.0 0.00 0.00 0.00 66 1024.3
20260830173104 83 149 1.0 2.0 0.00 0.00 0.00 67 1024.7
20260830171553 79 300 0.0 2.0 0.00 0.00 0.00 71 1024.9
20260830170051 80 305 0.0 2.0 0.00 0.00 0.00 71 1025.1
20260830164606 80 0 0.0 1.0 0.00 0.00 0.00 74 1025.2
20260830163058 79 308 1.0 1.0 0.00 0.00 0.00 74 1025.3
20260830161550 80 0 0.0 2.0 0.00 0.00 0.00 74 1025.5
20260830160049 80 317 1.0 2.0 0.00 0.00 0.00 73 1025.6
20260830154542 81 300 0.0 2.0 0.00 0.00 0.00 70 1025.6
20260830153041 82 44 1.0 4.0 0.00 0.00 0.00 70 1025.7
20260830151549 80 200 0.0 3.0 0.00 0.00 0.00 73 1025.8
20260830150052 78 21 1.0 4.0 0.00 0.00 0.00 76 1025.7
20260830144557 76 42 1.0 2.0 0.00 0.00 0.00 76 1025.7
20260830143041 77 0 0.0 2.0 0.00 0.00 0.00 77 1025.8
20260830141553 75 202 1.0 4.0 0.00 0.00 0.00 82 1025.7
20260830140048 74 0 0.0 0.0 0.00 0.00 0.00 86 1025.9
20260830134542 73 0 0.0 2.0 0.00 0.00 0.00 87 1026.0
20260830133057 72 0 0.0 2.0 0.00 0.00 0.00 89 1026.1
20260830131548 72 0 0.0 1.0 0.00 0.00 0.00 89 1026.1
20260830130051 72 0 0.0 2.0 0.00 0.00 0.00 89 1026.1